TimeEDT,TemperatureF,Dew PointF,Humidity,Sea Level PressureIn,VisibilityMPH,Wind Direction,Wind SpeedMPH,Gust SpeedMPH,PrecipitationIn,Events,Conditions,WindDirDegrees,DateUTC
12:15 AM,50.0,48.2,94,30.34,10.0,Calm,Calm,-,N/A,,Clear,0,2012-10-14 04:15:00
12:35 AM,51.8,48.2,88,30.33,10.0,Calm,Calm,-,N/A,,Clear,0,2012-10-14 04:35:00
12:55 AM,50.0,48.2,94,30.33,10.0,Calm,Calm,-,N/A,,Clear,0,2012-10-14 04:55:00
1:15 AM,50.0,48.2,94,30.32,10.0,Calm,Calm,-,N/A,,Clear,0,2012-10-14 05:15:00
1:35 AM,50.0,44.6,82,30.32,10.0,Calm,Calm,-,N/A,,Clear,0,2012-10-14 05:35:00
1:55 AM,50.0,44.6,82,30.31,10.0,NNW,3.5,-,N/A,,Clear,330,2012-10-14 05:55:00
2:15 AM,50.0,44.6,82,30.31,10.0,Calm,Calm,-,N/A,,Clear,0,2012-10-14 06:15:00
2:35 AM,48.2,44.6,87,30.30,10.0,NNW,3.5,-,N/A,,Clear,340,2012-10-14 06:35:00
2:55 AM,48.2,44.6,87,30.30,8.0,North,4.6,-,N/A,,Clear,350,2012-10-14 06:55:00
3:15 AM,48.2,44.6,87,30.29,9.0,NNW,4.6,-,N/A,,Clear,340,2012-10-14 07:15:00
3:35 AM,48.2,44.6,87,30.29,10.0,North,5.8,-,N/A,,Clear,350,2012-10-14 07:35:00
3:55 AM,48.2,44.6,87,30.29,10.0,NNW,4.6,-,N/A,,Clear,340,2012-10-14 07:55:00
4:15 AM,48.2,44.6,87,30.28,10.0,NNW,4.6,-,N/A,,Clear,340,2012-10-14 08:15:00
4:35 AM,48.2,44.6,87,30.28,8.0,Calm,Calm,-,N/A,,Clear,0,2012-10-14 08:35:00
4:55 AM,50.0,46.4,87,30.27,10.0,North,3.5,-,N/A,,Clear,360,2012-10-14 08:55:00
5:15 AM,48.2,46.4,93,30.27,10.0,North,3.5,-,N/A,,Clear,360,2012-10-14 09:15:00
5:35 AM,50.0,46.4,87,30.27,10.0,SW,3.5,-,N/A,,Clear,220,2012-10-14 09:35:00
5:55 AM,48.2,44.6,87,30.27,10.0,WSW,4.6,-,N/A,,Clear,250,2012-10-14 09:55:00
6:15 AM,50.0,46.4,87,30.27,10.0,North,3.5,-,N/A,,Clear,360,2012-10-14 10:15:00
6:35 AM,50.0,46.4,87,30.27,10.0,NNE,3.5,-,N/A,,Clear,30,2012-10-14 10:35:00
6:55 AM,48.2,46.4,93,30.26,10.0,Calm,Calm,-,N/A,,Clear,0,2012-10-14 10:55:00
7:15 AM,50.0,46.4,87,30.27,10.0,Calm,Calm,-,N/A,,Clear,0,2012-10-14 11:15:00
7:35 AM,50.0,46.4,87,30.27,9.0,North,3.5,-,N/A,,Clear,10,2012-10-14 11:35:00
7:55 AM,50.0,44.6,82,30.28,10.0,North,5.8,-,N/A,,Clear,350,2012-10-14 11:55:00
8:15 AM,51.8,48.2,88,30.29,10.0,North,4.6,-,N/A,,Clear,360,2012-10-14 12:15:00
8:35 AM,51.8,50.0,94,30.29,10.0,North,3.5,-,N/A,,Clear,10,2012-10-14 12:35:00
8:55 AM,53.6,50.0,88,30.29,10.0,NNE,4.6,-,N/A,,Mostly Cloudy,20,2012-10-14 12:55:00
9:15 AM,55.4,51.8,88,30.30,10.0,North,4.6,-,N/A,,Overcast,10,2012-10-14 13:15:00
9:35 AM,57.2,51.8,82,30.30,10.0,NNE,3.5,-,N/A,,Overcast,20,2012-10-14 13:35:00
9:55 AM,60.8,53.6,77,30.29,10.0,Calm,Calm,-,N/A,,Overcast,0,2012-10-14 13:55:00
10:15 AM,62.6,55.4,77,30.28,10.0,ENE,5.8,-,N/A,,Overcast,60,2012-10-14 14:15:00
10:35 AM,64.4,57.2,77,30.28,10.0,ENE,5.8,-,N/A,,Overcast,60,2012-10-14 14:35:00
10:55 AM,66.2,57.2,73,30.27,10.0,ENE,4.6,-,N/A,,Mostly Cloudy,70,2012-10-14 14:55:00
11:15 AM,68.0,59.0,73,30.27,10.0,ESE,3.5,-,N/A,,Partly Cloudy,110,2012-10-14 15:15:00
11:35 AM,69.8,60.8,73,30.26,10.0,Calm,Calm,-,N/A,,Clear,0,2012-10-14 15:35:00
11:55 AM,71.6,60.8,69,30.26,10.0,Calm,Calm,-,N/A,,Clear,0,2012-10-14 15:55:00
12:15 PM,71.6,60.8,69,30.25,10.0,SE,4.6,-,N/A,,Clear,140,2012-10-14 16:15:00
12:35 PM,75.2,60.8,61,30.24,10.0,SE,4.6,-,N/A,,Clear,140,2012-10-14 16:35:00
12:55 PM,75.2,60.8,61,30.23,10.0,SW,3.5,-,N/A,,Clear,220,2012-10-14 16:55:00
1:15 PM,77.0,59.0,54,30.22,10.0,South,6.9,-,N/A,,Partly Cloudy,180,2012-10-14 17:15:00
1:35 PM,77.0,59.0,54,30.20,10.0,SSE,4.6,-,N/A,,Partly Cloudy,160,2012-10-14 17:35:00
1:55 PM,78.8,57.2,47,30.19,10.0,South,8.1,-,N/A,,Scattered Clouds,190,2012-10-14 17:55:00
2:15 PM,78.8,55.4,44,30.19,10.0,South,3.5,-,N/A,,Partly Cloudy,190,2012-10-14 18:15:00
2:35 PM,78.8,55.4,44,30.18,10.0,SSW,4.6,-,N/A,,Partly Cloudy,210,2012-10-14 18:35:00
2:55 PM,77.0,55.4,47,30.18,10.0,SSE,4.6,-,N/A,,Mostly Cloudy,160,2012-10-14 18:55:00
3:15 PM,77.0,55.4,47,30.17,10.0,Calm,Calm,-,N/A,,Overcast,0,2012-10-14 19:15:00
3:35 PM,78.8,57.2,47,30.16,10.0,SSE,5.8,-,N/A,,Overcast,150,2012-10-14 19:35:00
3:55 PM,77.0,55.4,47,30.15,10.0,SSE,4.6,-,N/A,,Overcast,160,2012-10-14 19:55:00
4:15 PM,77.0,57.2,50,30.15,10.0,Calm,Calm,-,N/A,,Overcast,0,2012-10-14 20:15:00
4:35 PM,77.0,57.2,50,30.14,10.0,South,3.5,-,N/A,,Overcast,170,2012-10-14 20:35:00
4:55 PM,77.0,59.0,54,30.14,10.0,East,3.5,-,N/A,,Overcast,80,2012-10-14 20:55:00
5:15 PM,77.0,60.8,57,30.13,10.0,East,3.5,-,N/A,,Mostly Cloudy,80,2012-10-14 21:15:00
5:35 PM,77.0,57.2,50,30.12,10.0,East,3.5,-,N/A,,Partly Cloudy,100,2012-10-14 21:35:00
5:55 PM,75.2,59.0,57,30.12,10.0,ESE,4.6,-,N/A,,Clear,120,2012-10-14 21:55:00
6:15 PM,73.4,59.0,61,30.11,10.0,ESE,4.6,-,N/A,,Clear,110,2012-10-14 22:15:00
6:35 PM,71.6,60.8,69,30.11,10.0,ESE,4.6,-,N/A,,Clear,110,2012-10-14 22:35:00
6:55 PM,69.8,60.8,73,30.11,10.0,Calm,Calm,-,N/A,,Clear,0,2012-10-14 22:55:00
7:15 PM,64.4,60.8,88,30.11,10.0,Calm,Calm,-,N/A,,Clear,0,2012-10-14 23:15:00
7:35 PM,64.4,59.0,83,30.11,10.0,Calm,Calm,-,N/A,,Clear,0,2012-10-14 23:35:00
7:55 PM,64.4,60.8,88,30.10,10.0,Calm,Calm,-,N/A,,Clear,0,2012-10-14 23:55:00
8:15 PM,62.6,60.8,94,30.10,10.0,Calm,Calm,-,N/A,,Clear,0,2012-10-15 00:15:00
8:35 PM,62.6,59.0,88,30.10,10.0,Calm,Calm,-,N/A,,Clear,0,2012-10-15 00:35:00
8:55 PM,62.6,57.2,82,30.09,10.0,SE,5.8,-,N/A,,Clear,130,2012-10-15 00:55:00
9:15 PM,64.4,60.8,88,30.10,10.0,SSE,5.8,-,N/A,,Clear,160,2012-10-15 01:15:00
9:35 PM,64.4,59.0,83,30.10,10.0,South,6.9,-,N/A,,Clear,170,2012-10-15 01:35:00
9:55 PM,64.4,59.0,83,30.10,10.0,South,5.8,-,N/A,,Scattered Clouds,170,2012-10-15 01:55:00
10:15 PM,66.2,60.8,83,30.09,10.0,SSE,6.9,-,N/A,,Overcast,160,2012-10-15 02:15:00
10:35 PM,66.2,59.0,78,30.08,10.0,SSE,10.4,-,N/A,,Mostly Cloudy,160,2012-10-15 02:35:00
10:55 PM,66.2,59.0,78,30.07,10.0,South,9.2,-,N/A,,Partly Cloudy,180,2012-10-15 02:55:00
11:15 PM,66.2,59.0,78,30.08,10.0,South,8.1,-,N/A,,Clear,180,2012-10-15 03:15:00
11:35 PM,64.4,59.0,83,30.08,10.0,SSW,5.8,-,N/A,,Partly Cloudy,200,2012-10-15 03:35:00
11:55 PM,66.2,59.0,78,30.05,10.0,South,11.5,-,N/A,,Partly Cloudy,170,2012-10-15 03:55:00